LayerSlider encountered a problem while it tried to show your slider.Please make sure that you've used the right shortcode or method to insert the slider, and check if the corresponding slider exists and it wasn't deleted previously.
2013 – 9 km GENERAL
Class. Nom Prénom Doss. Sexe Caté. Temps Moy.
1 CORDARY Patrick 579 M Senior 00:33:09 16,29
2 ROLLIN Sebastien 671 M Senior 00:33:30 16,12
3 MARC Stephane 517 M Senior 00:34:29 15,66
4 AICHOR Stephane 695 M Vet. 2 00:34:49 15,51
5 BOYER Guillaume 613 M Senior 00:35:02 15,41
6 CHEBBAH Mehdi 698 M Senior 00:35:04 15,40
7 CHEBBAH Rachid 694 M Vet. 2 00:35:45 15,10
8 CROUZIL Guillaume 707 M Espoir 00:36:13 14,91
9 FOULQUIER Fabien 527 M Senior 00:36:13 14,91
10 BURG Franck 658 M Senior 00:37:07 14,55
11 RAZAT Julien 516 M Senior 00:37:19 14,47
12 TOURNIER Mathieu 553 M Senior 00:37:55 14,24
13 COCHEZ Jerome 710 M Senior 00:37:59 14,22
14 BRUNEL Fabien 567 M Senior 00:37:59 14,22
15 MAILLE Yoann 508 M Senior 00:37:59 14,22
16 PONS Jonathan 725 M Senior 00:37:59 14,22
17 LACAUSTE David 520 M Vet. 1 00:37:59 14,22
18 PUJO Bernard 590 M Vet. 2 00:37:59 14,22
19 MARTIN Sebastien 507 M Senior 00:38:14 14,12
20 PHILIPPON Jean-Marc 686 M Vet. 2 00:38:46 13,93
21 TEILLET Christophe 562 M Vet. 1 00:39:03 13,83
22 GASPAROTTO David 504 M Vet. 1 00:39:12 13,78
23 CAUJOLLE Christophe 726 M Vet. 1 00:39:40 13,61
24 CLUZET Bertrand 648 M Espoir 00:39:45 13,58
25 PARRA Antoine 550 M Vet. 1 00:39:46 13,58
26 BOIZIAU Rudy 586 M Senior 00:39:46 13,58
27 CAZALIS Stephane 626 M Vet. 1 00:39:47 13,57
28 HANUS Renaud 675 M Vet. 1 00:39:49 13,56
29 DORSZ Jean Michem 706 M Vet. 1 00:39:50 13,56
30 CUNIASSE Alexandre 501 M Senior 00:39:51 13,55
31 BURVILL Thomas 544 M Senior 00:39:55 13,53
32 BUI Gia Huy 645 M Espoir 00:39:58 13,51
33 TORTECH Eric 589 M Vet. 2 00:40:08 13,46
34 PUECH Christophe 701 M Vet. 1 00:40:25 13,36
35 CEBRIAN Jean-Michel 687 M Vet. 1 00:40:27 13,35
36 ZUPPELI Sandrine 582 F Vet. 1 00:40:52 13,21
37 APPARICIO David 712 M Senior 00:40:54 13,20
38 LEMBOULAS Rudi 684 M Vet. 1 00:40:54 13,20
39 TUAL Anthony 727 M Senior 00:40:56 13,19
40 RASCOUSSIE Frederic 702 M Vet. 1 00:41:03 13,15
41 COUTY Frédéric 558 M Vet. 1 00:41:06 13,14
42 GARRIGUE Jean Claude 506 M Vet. 2 00:41:06 13,14
43 ESCOBAR Dominique 523 M Senior 00:41:06 13,14
44 VIGUIE Christophe 597 M Vet. 1 00:41:06 13,14
45 CERISIER Martin 731 M Vet. 1 00:41:06 13,14
46 MODESTO Richard 635 M Senior 00:41:07 13,13
47 TAHIRI Nabil 548 M Senior 00:41:09 13,12
48 RIVIERE Maeva 580 F Senior 00:41:33 13,00
49 FAYEL Claude 664 M Vet. 1 00:41:36 12,98
50 SINGIER Benjamin 530 M Senior 00:41:40 12,96
51 BERTRAND Olivier 636 M Vet. 1 00:41:45 12,93
52 ROQUES Philippe 554 M Vet. 1 00:41:50 12,91
53 BERTHOD Philippe 526 M Vet. 1 00:41:51 12,90
54 PAYTRA Patrice 529 M Senior 00:41:55 12,88
55 ARNAL BREZUN Sophie 556 F Vet. 1 00:41:57 12,87
56 POEY Jean Michel 623 M Vet. 1 00:42:18 12,77
57 LASSALLE Yoann 561 M Senior 00:42:20 12,76
58 MOHARA Guillaume 647 M Espoir 00:42:24 12,74
59 SCAVONE Frédéric 584 M Senior 00:42:48 12,62
60 BALLARIN William 595 M Vet. 1 00:42:51 12,60
61 POIRIER Didier 581 M Vet. 2 00:42:52 12,60
62 MASSICAR Emmanuel 585 M Vet. 1 00:42:52 12,60
63 PRADAL Jacky 709 M Senior 00:42:52 12,60
64 ROUS Karine 559 F Senior 00:42:53 12,59
65 BOURDIL Jerome 587 M Vet. 1 00:42:54 12,59
66 CHABOSI Jean Luc 528 M Vet. 2 00:42:54 12,59
67 NILON Joël 535 M Vet. 1 00:42:54 12,59
68 VINTROU Sebastien 564 M Vet. 1 00:42:55 12,58
69 BOLORINOS Pierre 732 M Vet. 2 00:42:56 12,58
70 MERAL Jean Laurent 697 M Vet. 1 00:42:56 12,58
71 VINCENT Julien 674 M Senior 00:43:05 12,53
72 PITTON Didier 588 M Vet. 2 00:43:18 12,47
73 PONS Serge 716 M Vet. 1 00:43:19 12,47
74 GAUTRET Bruno 532 M Vet. 2 00:43:22 12,45
75 ABAS Pascal 672 M Vet. 1 00:43:28 12,42
76 CHAMAILLARD Guillaume 693 M Senior 00:43:31 12,41
77 GIRARD Christian 605 M Vet. 2 00:43:32 12,40
78 GOBERT Arnaud 722 M Senior 00:43:40 12,37
79 DESCOTTE Quentin 691 M Senior 00:44:05 12,25
80 ABRAHAM Alain 713 M Vet. 2 00:44:33 12,12
81 PONTONNIER Guillaume 551 M Vet. 1 00:44:34 12,12
82 LAGARRIGUE Bruno 699 M Vet. 1 00:44:35 12,11
83 BOUSQUET Christophe 734 M Vet. 1 00:44:39 12,09
84 ESTIVILL Laurent 607 M Senior 00:44:43 12,08
85 ROSA Joachim 571 M Senior 00:44:50 12,04
86 RIGAUD DUFOURCQ Anouk 660 F Vet. 1 00:44:53 12,03
87 SAUNAL Claude 730 M Vet. 2 00:44:54 12,03
88 BOUCHETAL Benoit 627 M Senior 00:44:54 12,03
89 DOUET Romain 728 M Senior 00:45:16 11,93
90 GINISTY Xavier 574 M Senior 00:45:17 11,92
91 LIMERMAN Stephane 596 M Vet. 1 00:45:27 11,88
92 BOUTONNET Philippe 642 M Vet. 2 00:45:28 11,88
93 LIMITO Mathilde 643 F Cadet 00:45:37 11,84
94 LE MARCHANT Jean Christophe 534 M Vet. 1 00:45:44 11,81
95 LACHAL David 557 M Vet. 1 00:45:44 11,81
96 FAVORY Xavier 524 M Senior 00:45:46 11,80
97 FABRIES Christophe 546 M Vet. 1 00:45:51 11,78
98 CASSAN Stephane 662 M Vet. 1 00:45:58 11,75
99 ESCOBAR Nicolas 522 M Senior 00:46:14 11,68
100 BESSIERES Michel 577 M Vet. 2 00:46:21 11,65
101 SALIN Ambroise 542 M Senior 00:46:21 11,65
102 DAYDE Jean-Michel 569 M Senior 00:46:21 11,65
103 HERNANDEZ Karina 615 F Senior 00:46:21 11,65
104 FEUTREN Etienne 724 M Espoir 00:46:22 11,65
105 CLAUSS Audrey 646 F Espoir 00:46:22 11,65
106 MARELLI Audrey 705 F Senior 00:46:24 11,64
107 BOISHARDY Marie Helene 624 F Vet. 2 00:46:24 11,64
108 EVRARD Gérard 505 M Vet. 3 00:46:32 11,60
109 RIBERY Gautier 718 M Senior 00:46:40 11,57
110 PAGES Anne 717 F Vet. 1 00:46:45 11,55
111 BORDENAVE Frederic 539 M Senior 00:47:07 11,46
112 SEMELLE Thierry 513 M Vet. 1 00:47:09 11,45
113 BAQUE Jean Francois 533 M Vet. 1 00:47:20 11,41
114 GALLOUX Anne Laure 511 F Senior 00:47:21 11,40
115 SAINT CAMILLE Camille 720 F Espoir 00:47:22 11,40
116 LAFAGE Rémi 563 M Vet. 1 00:47:23 11,40
117 DURAND MURAT Cathy 723 F Vet. 1 00:47:25 11,39
118 GORDON Gilles 644 M Vet. 1 00:47:32 11,36
119 BODIN Joelle 609 F Vet. 2 00:47:36 11,34
120 CANONGE Helene 512 F Senior 00:47:47 11,30
121 NONIS Jerome 608 M Senior 00:47:52 11,28
122 MANNO Virginie 611 F Vet. 1 00:48:09 11,21
123 ROSA Stéphanie 570 F Senior 00:48:11 11,21
124 RIEFFEL Olivier 670 M Vet. 1 00:48:24 11,16
125 KLOTZ Virginie 714 F Vet. 2 00:48:55 11,04
126 GACHES Audrey 735 F Senior 00:49:00 11,02
127 ROSSIGNOL Fatima 519 F Vet. 1 00:49:04 11,01
128 PRADAL Eliane 708 F Vet. 2 00:49:16 10,96
129 BODIN Pierre 610 M Senior 00:49:20 10,95
130 GOI Olivier 514 M Senior 00:49:29 10,91
131 LABAUDINIERE Hugues 729 M Senior 00:49:34 10,89
132 PITET Jean Luc 655 M Vet. 1 00:49:36 10,89
133 ANGELY Anne Marie 599 F Vet. 1 00:49:39 10,88
134 SOUQUIERE Jerome 704 M Senior 00:49:40 10,87
135 LAMANT Christophe 685 M Vet. 1 00:49:40 10,87
136 LOPEZ Alexandra 515 F Senior 00:49:40 10,87
137 ROSSIGNOL Christophe 518 M Vet. 1 00:49:46 10,85
138 BLANC Véronique 545 F Vet. 1 00:49:47 10,85
139 BOUNIOLS Gilbert 721 M Vet. 2 00:49:48 10,84
140 AVERSENQ Rolland 733 M Vet. 2 00:49:51 10,83
141 GOFFINET Jean Marc 619 M Vet. 3 00:50:02 10,79
142 LIMA Carlos 600 M Senior 00:50:07 10,77
143 TOURNIER Marie 566 F Senior 00:50:09 10,77
144 LEFEBVRE Marc 543 M Vet. 2 00:50:14 10,75
145 LEMAGNER Fabien 573 M Senior 00:50:17 10,74
146 DELGADO Guy 593 M Vet. 1 00:50:33 10,68
147 SCHECK Nicolas 603 M Senior 00:50:35 10,68
148 PODEVIN Olivier 503 M Senior 00:50:36 10,67
149 GASPIN Pierre 688 M Senior 00:50:36 10,67
150 TOUVENOT Daniel 549 M Senior 00:50:36 10,67
151 GREPINET Lydia 661 F Vet. 1 00:50:36 10,67
152 BAUDIN Caroline 537 F Senior 00:50:36 10,67
153 BAREAU Sylvie 540 F Senior 00:50:43 10,65
154 BONNET Anita 618 F Vet. 1 00:50:44 10,64
155 PITTON Eric 715 M Vet. 1 00:50:50 10,62
156 HOLIN Caridad 633 M Vet. 1 00:50:56 10,60
157 CORSETTI Celine 679 F Senior 00:50:58 10,60
158 VILLIEN Céline 536 F Vet. 1 00:51:01 10,58
159 MAGNUSEN Erik 700 M Senior 00:51:02 10,58
160 PRADAL Roxane 696 F Junior 00:51:04 10,57
161 BIRADES Jean Bernard 654 M Vet. 1 00:51:06 10,57
162 GALITA Jean Marie 637 M Vet. 1 00:51:32 10,48
163 REY Damien 541 M Senior 00:51:42 10,44
164 BILLOTTET Robert 628 M Vet. 4 00:51:55 10,40
165 SPERTINO Claudine 583 F Vet. 1 00:51:56 10,40
166 DUFFAU Fabien 641 M Senior 00:52:13 10,34
167 RIEFFEL Nicolas 669 M Vet. 1 00:52:14 10,34
168 DERET Odile 659 F Vet. 1 00:52:14 10,34
169 MORIN Mathieu 510 M Senior 00:52:28 10,29
170 SAINT Jean Pierre 719 M Vet. 2 00:52:40 10,25
171 DEBOST François 547 M Senior 00:52:48 10,23
172 RIEFFEL Louis 668 M Vet. 2 00:52:52 10,21
173 CORIN Bruno 614 M Vet. 1 00:53:00 10,19
174 DELLAC Nadine 737 F Vet. 1 00:53:01 10,19
175 MORELIERE Maryline 680 F Vet. 2 00:53:02 10,18
176 PROUST Bernard 578 M Vet. 2 00:53:03 10,18
177 BEAUVAIS Marion 572 F Senior 00:53:04 10,18
178 CESSES Sandra 620 F Senior 00:53:05 10,17
179 MASCRE Elise 598 F Vet. 1 00:53:06 10,17
180 WATSON Kirsty 565 F Senior 00:53:11 10,15
181 MANETTI Elvire 509 F Senior 00:53:12 10,15
182 COSTES Frederique 602 F Vet. 1 00:54:02 9,99
183 BENOS Jean Paul 676 M Vet. 1 00:54:33 9,90
184 THOMAS Jean Marc 560 M Vet. 2 00:54:58 9,82
185 ROUGE Marie Helene 683 F Vet. 1 00:55:05 9,80
186 NADALIN Jaqueline 711 F Vet. 3 00:55:12 9,78
187 NADALIN Severine 690 F Vet. 1 00:55:20 9,76
188 MOURLHOU Jerome 617 M Vet. 1 00:55:46 9,68
189 MORELIERE Michel 681 M Vet. 2 00:55:50 9,67
190 MOURLHOU Nathalie 616 F Vet. 1 00:56:15 9,60
191 LEPAIN Gerald 612 M Vet. 1 00:56:26 9,57
192 TONIUTTI Marie Claire 678 F Vet. 2 00:56:27 9,57
193 FOURCADE Myriam 657 F Vet. 1 00:56:34 9,55
194 DOUMERG Nathalie 640 F Vet. 1 00:56:35 9,54
195 FAUCONNET Patricia 639 F Vet. 1 00:56:36 9,54
196 BAERT Chantal 625 F Vet. 3 00:56:37 9,54
197 TOMASIN Corinne 652 F Vet. 2 00:56:37 9,54
198 FORGET Mathieu 736 M Senior 00:56:43 9,52
199 VALADE Carole 634 F Vet. 1 00:56:59 9,48
200 COLOMB Sylvie 552 F Vet. 1 00:57:02 9,47
201 ARZ Geraldine 692 F Senior 00:57:03 9,47
202 GENDRE William 525 M Senior 00:57:04 9,46
203 SARZI Bruno 568 M Senior 00:57:19 9,42
204 BALLARIN Karine 594 F Senior 00:57:26 9,40
205 ROMERA Brigitte 651 F Vet. 1 00:58:01 9,31
206 CHUIT Caroline 649 F Senior 00:58:02 9,30
207 CARPENTIER Catherine 591 F Vet. 1 00:58:04 9,30
208 BROUILLAC Nicolas 631 M Senior 00:58:15 9,27
209 CLAVEIROLE Geraldine 632 F Senior 00:58:19 9,26
210 BLAIN Jennifer 630 F Senior 00:58:38 9,21
211 RABOISSON Jacques 538 M Vet. 3 00:58:47 9,19
212 MOENNER Michel 592 M Vet. 2 00:58:59 9,16
213 LAFLEURANCE Pierre 703 M Senior 00:59:04 9,14
214 PERBOST Thomas 622 M Cadet 00:59:05 9,14
215 FAYEL Corinne 663 F Vet. 1 00:59:05 9,14
216 MALVAUX Thierry 653 M Vet. 1 00:59:16 9,11
217 NICOLAUX Marie Jo 677 F Vet. 2 00:59:40 9,05
218 ARQUIER Laurie 673 F Cadet 01:00:00 9,00
219 ESTIVILL Sandrine 606 F Vet. 1 01:00:01 9,00
220 BOIVIN Tess 638 F Cadet 01:00:02 9,00
221 RIVOIRE Marie 667 F Cadet 01:00:03 8,99
222 RIVOIRE Franck 666 M Vet. 1 01:00:04 8,99